Location: Montreal
(45.5087°N, 73.5540°W)
Time: 15:53:47
(UTC-04:00)

X-37B - Pass Details

Date: 03 October 2021
Orbit: 385 x 389 km, 45.0° (Epoch: 13 October)

Event Time Altitude Azimuth Distance (km) Brightness Sun altitude
Exits shadow 04:34:20 16° 121° (ESE) 1,115 3.3 -25.1°
Drops below altitude 10° 04:35:05 10° 117° (ESE) 1,410 3.9 -25.0°
Sets 04:37:10 0° 113° (ESE) 2,263 5.1 -24.6°
